SCOUT A R/B, 1953

Orbit data source: Space-Track

SCOUT A R/B, 1953 is space debris in LEO originally from a launch on Fri, 28 Jan 1966 UTC launched from the Air Force Western Test Range (AFWTR). Debris objects in space refer to the collection of defunct objects orbiting the Earth. Examples of debris include non-operational satellites, rocket bodies, and fragments generated from explosions, collisions, or faulty payload assembly.

Loading next visibility...
Identifier
1953, 1966-005B
Orbit
LEO
Country
Flag of USUS
Related business
Manufacturer
ABL
Mission
Spacecraft
Bus & Motor
ALTAIR, Unknown motor
Mass
33 kg wet, 33 kg dry
Launch date (UTC)
1966-01-28 (60 years ago)
Launch vehicle
Unknown
Launch site
Air Force Western Test Range (AFWTR)
Object type
Payload
Rocket body
Debris
Shape & HBR
Unknown
Radar Cross Section
Medium (>0.1 m² and <1 m²)

Expand to show TLE details & history
Last TLE update: 13 hours ago

TLE from 13 hours ago
0 SCOUT A R/B
1 01953U 66005B   26140.88279837  .00000060  00000-0  55108-4 0  9999
2 01953  90.1449 352.2273 0225111 265.1745  92.3679 13.65072113999151
Epoch: 2026-05-20T21:11Z
TLE epoch observation values (Epoch: 2026-05-20T21:11:13.779Z)
Latitude
-0.00002°
Longitude
155.88392°
Altitude
1,030.908 km
Speed
7.331 km/s
True Right ascension
23h 28m 54s
True Declination
0° 00' 00"
Sunlit
Object was in daylight at epoch
Visualization orbit readout
Latitude
Unknown
Longitude
Unknown
Altitude
Unknown
Speed
Unknown
Apparent Right ascension
Unknown
Apparent Declination
Unknown
Sunlit
N/A
Visualization observer readout
Local Sidereal Time
19:16:29
Azimuth
Unknown
Elevation
Unknown
Doppler factor
Unknown
Orbital elements
Apogee altitude
1,180.754 km
Perigee altitude
847.929 km
Semi-major axis
7,392.479 km
Eccentricity
0.02251
Inclination
90.1449°
RAAN
352.2273°
Arg. of periapsis
265.1745°
True anomaly
94.94142°
Mean anomaly
92.3679°
Eccentric anomaly
93.65507°
Mean motion
3.41474 °/min
Orbital period
105.43 mins
BSTAR
0.000055108
Loading maneuver chart data...
Computing Atmospheric mass density...
Loading historical data...
Loading historical data...
Loading historical data...
Loading historical data...
Loading historical data...
Loading historical data...
Loading historical data...

Documentation

Showing up to 5 results
|